Location: Tryon
(41.5533°N, 100.9574°W)
Time: 23:34:37
(UTC-05:00)

Envisat - Visible Passes

Search period start: 22 March 2019 00:00
Search period end: 01 April 2019 00:00
Orbit: 764 x 766 km, 98.2° (Epoch: 22 March)

Date Brightness Start Highest point End Pass type
(mag) Time Alt. Az. Time Alt. Az. Time Alt. Az.
22 Mar 3.1 20:19:25 10° SSE 20:24:30 89° WSW 20:29:36 10° NNW visible
23 Mar 5.5 21:23:03 10° SW 21:27:02 23° W 21:31:01 10° NW visible
24 Mar 4.0 20:45:09 10° S 20:50:04 51° W 20:55:01 10° NNW visible
25 Mar 6.0 21:50:35 10° WSW 21:52:50 13° W 21:55:06 10° WNW visible
26 Mar 5.1 21:11:22 10° SSW 21:15:43 29° W 21:20:07 10° NW visible
27 Mar 3.5 20:33:48 10° S 20:38:49 65° WSW 20:43:53 10° NNW visible
28 Mar 5.8 21:38:19 10° SW 21:41:29 17° W 21:44:41 10° NW visible
29 Mar 4.7 20:59:48 10° SSW 21:04:27 36° W 21:09:08 10° NNW visible
30 Mar 3.2 20:22:31 10° S 20:27:35 82° WSW 20:32:42 10° NNW visible
31 Mar 5.6 21:26:22 10° SW 21:30:10 21° W 21:33:58 10° NW visible
